Weather History for Millington, TN

Change the Weather History Date:

Wednesday, November 13, 2013

  Actual Average Record
Temperature  
Mean Temperature 37 °F -  
Max Temperature 48 °F 60 °F 77 °F (1999)
Min Temperature 26 °F 42 °F 26 °F (2013)
Degree Days  
Heating Degree Days 28    
Moisture  
Dew Point 22 °F    
Average Humidity 68    
Maximum Humidity 93    
Minimum Humidity 32    
Precipitation  
Precipitation 0.00 in - - ()
Sea Level Pressure  
Sea Level Pressure 30.61 in    
Wind  
Wind Speed 4 mph (NNE)    
Max Wind Speed 6 mph    
Max Gust Speed -    
Visibility 10 miles    
Events      
Averages and records for this station are not official NWS values.
T = Trace of Precipitation, MM = Missing Value Source: NWS Daily Summary

Daily Weather History Graph

Daily Weather History Graph

Search for Another Location

Airport:

Trip Planner

Search our weather history database for the weather conditions in past years. The results will help you decide how hot, cold, wet, or windy it might be!

Date:

Astronomy

Nov. 13, 2013 Rise Set
Actual Time 6:32 AM CST 4:54 PM CST
Civil Twilight 6:05 AM CST 5:21 PM CST
Nautical Twilight 5:35 AM CST 5:51 PM CST
Astronomical Twilight 5:05 AM CST 6:21 PM CST
Moon 2:34 PM CST (11/13) 2:34 AM CST (11/13)
Length of Visible Light 11h 15m
Length of Day
10h 21m
Waxing Gibbous, 85% of the Moon is Illuminated
Nov 13
Waxing Gibbous
Nov 17
Full
Nov 25
Last Quarter
Dec 2
New
Dec 9
First Quarter

Hourly Weather History & Observations

Time (CST) Temp. Windchill Dew Point Humidity Pressure Visibility Wind Dir Wind Speed Gust Speed Precip Events Conditions
12:55 AM 26.6 °F 20.0 °F 21.2 °F 80% 30.67 in 10.0 mi North 5.8 mph - N/A   Clear
1:55 AM 26.6 °F 21.2 °F 21.2 °F 80% 30.68 in 10.0 mi North 4.6 mph - N/A   Clear
2:15 AM 26.6 °F 20.0 °F 21.2 °F 80% 30.67 in 10.0 mi NNE 5.8 mph - N/A   Clear
2:35 AM 28.4 °F 22.2 °F 21.2 °F 74% 30.67 in 10.0 mi NNE 5.8 mph - N/A   Clear
2:55 AM 26.6 °F 20.0 °F 21.2 °F 80% 30.67 in 10.0 mi North 5.8 mph - N/A   Clear
3:15 AM 26.6 °F 21.2 °F 21.2 °F 80% 30.67 in 10.0 mi North 4.6 mph - N/A   Clear
3:35 AM 26.6 °F 21.2 °F 21.2 °F 80% 30.66 in 10.0 mi North 4.6 mph - N/A   Clear
3:55 AM 26.6 °F 20.0 °F 21.2 °F 80% 30.68 in 10.0 mi North 5.8 mph - N/A   Clear
4:15 AM 26.6 °F 21.2 °F 21.2 °F 80% 30.68 in 10.0 mi North 4.6 mph - N/A   Clear
4:35 AM 26.6 °F 21.2 °F 21.2 °F 80% 30.69 in 10.0 mi North 4.6 mph - N/A   Clear
4:55 AM 26.6 °F 21.2 °F 21.2 °F 80% 30.69 in 10.0 mi NNE 4.6 mph - N/A   Clear
5:55 AM 26.6 °F - 19.4 °F 74% 30.70 in 10.0 mi Calm Calm - N/A   Clear
6:55 AM 26.6 °F 22.6 °F 21.2 °F 80% 30.72 in 10.0 mi North 3.5 mph - N/A   Clear
7:55 AM 30.2 °F 25.4 °F 21.2 °F 69% 30.71 in 10.0 mi ENE 4.6 mph - N/A   Clear
8:55 AM 35.6 °F 31.7 °F 24.8 °F 65% 30.69 in 10.0 mi NE 4.6 mph - N/A   Clear
9:55 AM 37.4 °F 34.9 °F 24.8 °F 60% 30.68 in 10.0 mi Variable 3.5 mph - N/A   Clear
10:55 AM 41.0 °F - 23.0 °F 49% 30.66 in 10.0 mi Calm Calm - N/A   Clear
11:55 AM 44.6 °F 41.4 °F 24.8 °F 46% 30.62 in 10.0 mi NNE 5.8 mph - N/A   Clear
12:55 PM 44.6 °F 42.2 °F 21.2 °F 39% 30.58 in 10.0 mi Variable 4.6 mph - N/A   Clear
1:55 PM 48.2 °F - 21.2 °F 34% 30.55 in 10.0 mi Calm Calm - N/A   Clear
2:55 PM 48.2 °F - 19.4 °F 32% 30.53 in 10.0 mi Calm Calm - N/A   Clear
3:55 PM 46.4 °F - 19.4 °F 34% 30.52 in 10.0 mi Calm Calm - N/A   Clear
4:55 PM 42.8 °F - 21.2 °F 42% 30.51 in 10.0 mi Calm Calm - N/A   Clear
5:55 PM 39.2 °F - 21.2 °F 49% 30.50 in 10.0 mi Calm Calm - N/A   Clear
6:55 PM 35.6 °F - 26.6 °F 70% 30.49 in 10.0 mi Calm Calm - N/A   Clear
7:55 PM 33.8 °F - 26.6 °F 75% 30.48 in 10.0 mi Calm Calm - N/A   Clear
8:55 PM 30.2 °F - 26.6 °F 86% 30.47 in 10.0 mi Calm Calm - N/A   Clear
9:55 PM 28.4 °F - 24.8 °F 86% 30.47 in 10.0 mi Calm Calm - N/A   Clear
10:55 PM 28.4 °F - 24.8 °F 86% 30.46 in 10.0 mi Calm Calm - N/A   Clear
11:55 PM 26.6 °F - 24.8 °F 93% 30.45 in 10.0 mi Calm Calm - N/A   Clear